STARLINK-38021, 69725

Orbit data source: Space-Track

STARLINK-38021, 69725 is a payload satellite owned by SpaceX/Seattle (US) in SSO that was launched on Sun, 28 Jun 2026 UTC via an FALCON 9 launch vehicle from the Air Force Western Test Range (AFWTR). Payload-class satellites include a variety of spacecraft equipped with specific instruments for various scientific and technological missions. These include communications satellites like Starlink; space stations such as the ISS; scientific satellites like the Hubble; Earth observation satellites from companies like Planet Labs, Umbra, and HawkEye 360; GPS; miniature CubeSats for education and research; and military/defense satellites.

Loading next visibility...
Identifier
69725, 2026-147X
Orbit
SSO
Country
Flag of USUS
Related business
Manufacturer
SpaceX/Seattle
Mission
Operational Commercial Communications
Bus & Motor
STARLINK V2MO, Unknown motor
Mass
575 kg wet, ~530 kg dry
Launch date (UTC)
2026-06-28 (2 months ago)
Launch vehicle
FALCON 9
Launch site
Air Force Western Test Range (AFWTR)
Object type
Payload
Rocket body
Debris
Shape & HBR
Box + 1 Pan, 17.7 m
Radar Cross Section
41.120 m², Large (>1 m²)

Expand to show TLE details & history
Last TLE update: 11 hours ago

TLE from 11 hours ago
0 STARLINK-38021
1 69725U 26147X   26237.04547464  .00018061  00000-0  56032-3 0  9998
2 69725  97.2836 273.8466 0001534  93.9263 266.2155 15.33451666 10184
Epoch: 2026-08-25T01:05Z
TLE epoch observation values (Epoch: 2026-08-25T01:05:29.008Z)
Latitude
-0.00006°
Longitude
-75.84272°
Altitude
468.705 km
Speed
7.632 km/s
True Right ascension
18h 15m 23s
True Declination
0° 00' 00"
Sunlit
Object was in full shadow at epoch
Visualization orbit readout
Latitude
Unknown
Longitude
Unknown
Altitude
Unknown
Speed
Unknown
Apparent Right ascension
Unknown
Apparent Declination
Unknown
Sunlit
N/A
Visualization observer readout
Local Sidereal Time
03:26:42
Azimuth
Unknown
Elevation
Unknown
Doppler factor
Unknown
Orbital elements
Apogee altitude
463.515 km
Perigee altitude
461.417 km
Semi-major axis
6,840.603 km
Eccentricity
0.00015
Inclination
97.2836°
RAAN
273.8466°
Arg. of periapsis
93.9263°
True anomaly
266.19796°
Mean anomaly
266.2155°
Eccentric anomaly
266.20673°
Mean motion
3.8362 °/min
Orbital period
93.84 mins
BSTAR
0.00056032
Loading maneuver chart data...
Computing Atmospheric mass density...
Loading historical data...
Loading historical data...
Loading historical data...
Loading historical data...
Loading historical data...
Loading historical data...
Loading historical data...

Documentation

Showing up to 5 results
|